Regional Weather Roundup
Issued by NWS Northern Indiana

Home | Current Version | Previous Version | Graphics & Text | Print | Product List | Glossary On
Versions: 1 2 3 4 5 6 7 8 9 10 11 12 13 14 15 16 17 18 19 20 21 22 23 24 25 26 27 28 29 30 31 32 33 34 35 36 37 38 39 40 41 42 43 44 45 46 47 48 49 50
000
ASUS43 KIWX 260200
RWRIWX

KIWX WEATHER ROUNDUP
NATIONAL WEATHER SERVICE NORTHERN INDIANA
900 PM EST SUN JAN 25 2015

NOTE: "FAIR" INDICATES FEW OR NO CLOUDS BELOW 12,000 FEET WITH NO
SIGNIFICANT WEATHER AND/OR OBSTRUCTIONS TO VISIBILITY.

* THESE STATIONS ARE NOT UNDER NWS QUALITY CONTROL. THEY ALSO MAY NOT
  REPORT WEATHER SUCH AS PRECIPITATION OR FOG.

INZ001>027-260300-
NORTHERN INDIANA

CITY           SKY/WX    TMP DP  RH WIND       PRES   REMARKS
SOUTH BEND     CLOUDY    25  15  66 VRB7      29.93S WCI  17
GOSHEN         CLOUDY    23  18  81 NE12      29.91R WCI  12
ANGOLA*        MOCLDY    21  16  79 NE12      29.89S WCI   9
FORT WAYNE     LGT SNOW  20  16  84 NE22G29   29.89R FOG     WCI   3

$$
INZ028>050-260300-
CENTRAL INDIANA

CITY           SKY/WX    TMP DP  RH WIND       PRES   REMARKS
LAFAYETTE      CLOUDY    26  21  81 NE15G24   29.88R WCI  14
KOKOMO*        CLOUDY    21  18  86 NE17      29.85S WCI   7
MUNCIE*        LGT SNOW  21  18  88 NE18G26   29.81R VSB 1   WCI   6
INDIANAPOLIS   FLURRIES  23  20  88 NE20G33   29.78R WCI   8

$$
MIZ043>046-050>051-056>058-064>065-071>073-077>080-260300-
SOUTHWEST LOWER MICHIGAN

CITY           SKY/WX    TMP DP  RH WIND       PRES   REMARKS
BATTLE CREEK   PTCLDY    22   6  50 NE12      29.94S WCI  10
BENTON HARBOR  PTCLDY    21  13  71 NE6       29.96S WCI  13
COLDWATER*     CLOUDY    22  10  62 NE13      29.92R WCI   9
HILLSDALE*     CLOUDY    21   7  56 NE10      29.90R WCI   9
HOLLAND        PTCLDY    20  10  65 NE9       30.00R WCI   9
GRAND RAPIDS   PTCLDY    18  10  71 NE14      30.00R WCI   4
KALAMAZOO      MOCLDY    21  12  68 NE9       29.95S WCI  11
STURGIS*       CLOUDY    21  14  73 NE12G20   29.91R WCI   9
THREE RIVERS*  CLOUDY    23  13  67 NE7       29.94R WCI  15

$$
OHZ001>008-015>018-024>025-260300-
NORTHWEST OHIO

CITY           SKY/WX    TMP DP  RH WIND       PRES   REMARKS
DEFIANCE       LGT SNOW  19  14  81 NE16G23   29.91S WCI   4
FINDLAY        LGT SNOW  21  16  81 NE17      29.86R WCI   7
TOLEDO EXPRESS FLURRIES  19  11  70 NE13G24   29.92S WCI   6
TOLEDO METCALF CLOUDY    19   9  65 NE13G22   29.94S WCI   6
LIMA           SNOW      22  17  81 NE16      29.83S VSB 1/2 WCI   8

$$
AND FOR LAKE MICHIGAN COASTAL AND OPEN LAKE BUOY OBSERVATIONS

STATION/POSITION TEMP    WIND        PRES    VSBY  WAVE
                 AIR SEA DIR/SP/G                  HT/PER
                 (F)     (DEG/KT/KT) (MB)    (MI)  (FT/S)
CALUMET HARBOR    27      30/ 18/ 22   N/A
MICHIGAN CITY     26      20/ 17/ 19   N/A
SAINT JOSEPH      24      10/  5/ 13 1014.9R

$$
&&


USA.gov is the U.S. government's official web portal to all federal, state and local government web resources and services.